Location: Unspecified
(48.8656°N, 0.0000°E)
Time: 08:41:50
(UTC+00:00)

Transit 2A Rocket - Pass Details

Date: 21 June 2019
Orbit: 588 x 915 km, 66.7° (Epoch: 23 July)

Event Time Altitude Azimuth Distance (km) Brightness Sun altitude
Rises 12:55:33 0° 268° (W) 3,538 8.6 62.4°
Reaches altitude 10° 12:58:47 10° 284° (WNW) 2,577 8.0 62.2°
Maximum altitude 13:03:13 21° 332° (NNW) 1,869 7.1 61.8°
Drops below altitude 10° 13:07:31 10° 20° (NNE) 2,467 7.5 61.5°
Sets 13:10:32 0° 37° (NE) 3,345 8.0 61.2°
